Home > Weather > Luhansk > Past weeks

Flag for Ukraine Past Weather in Luhansk, Ukraine — Yesterday and Last 2 Weeks

Now
61 °F

Thunderstorms. Overcast.


Feels Like: 61 °F
Forecast: 62 / 77 °F
Wind: 10 mph from Southwest

Location: Rostov-Na-Donu

Current Time: May 28, 2016 at 11:12:04 PM

Latest Report: May 28, 2016 at 10:30 PM


Visibility: 2 mi

Pressure: 29.83 "Hg

Humidity: 88%

Dew Point: 57 °F

Location of LuhanskLocation

Past Weather in Luhansk — Graph

°F

Luhansk Temperature Yesterday

Maximum temperature yesterday: 68 °F (at 4:00 PM)
Minimum temperature yesterday: 57 °F (at 11:00 PM)
Average temperature yesterday: 63 °F

High & Low Weather Summary for the Past Weeks

 TemperatureHumidityPressure
High81 °F (May 28, 4:00 PM)100% (May 24, 5:30 AM)30.07 "Hg (May 24, 5:30 AM)
Low48 °F (May 21, 3:30 AM)31% (May 22, 2:00 PM)29.62 "Hg (May 14, 6:00 AM)
Average63 °F73%29.84 "Hg
* Reported May 13 9:00 PM — May 28 9:30 PM, Luhansk, Weather by CustomWeather, © 2016

Note: Actual official high and low records may vary slightly from our data, if they occured in-between our weather recording intervals... More about our weather records

Advertising

Luhansk Weather History for the Previous 24 Hours

Scroll right to see more
 ConditionsComfort  
Time TempWeatherWind HumidityBarometerVisibility
9:30 PM
Sat, May 28
64 °FThunderstorms. Overcast.13 mph83%29.83 "Hg5 mi
9:00 PM68 °FThunderstorms. Overcast.1 mph73%29.80 "Hg5 mi
8:30 PM73 °FThunderstorms. Passing clouds.13 mph65%29.83 "Hg5 mi
8:00 PM75 °FPassing clouds.6 mph61%29.80 "HgN/A
7:30 PM75 °FPassing clouds.6 mph65%29.80 "HgN/A
7:00 PM75 °FPassing clouds.6 mph65%29.80 "HgN/A
6:30 PM77 °FPassing clouds.6 mph61%29.80 "HgN/A
6:00 PM77 °FPassing clouds.8 mph61%29.80 "HgN/A
5:30 PM77 °FScattered clouds.10 mph61%29.80 "HgN/A
5:00 PM79 °FScattered clouds.10 mph58%29.80 "HgN/A
4:30 PM79 °FScattered clouds.13 mph54%29.83 "HgN/A
4:00 PM81 °FScattered clouds.10 mph54%29.83 "HgN/A
3:30 PM79 °FScattered clouds.13 mph58%29.83 "HgN/A
3:00 PM79 °FScattered clouds.13 mph58%29.86 "HgN/A
2:30 PM79 °FScattered clouds.10 mph58%29.86 "HgN/A
2:00 PM79 °FScattered clouds.8 mph58%29.86 "HgN/A
1:30 PM79 °FScattered clouds.10 mph58%29.89 "HgN/A
1:00 PM77 °FScattered clouds.8 mph61%29.89 "HgN/A
12:30 PM77 °FPassing clouds.8 mph57%29.89 "HgN/A
12:00 PM75 °FSunny.8 mph61%29.89 "Hg10 mi
11:30 AM75 °FPassing clouds.6 mph65%29.92 "HgN/A
11:00 AM75 °FPassing clouds.8 mph61%29.92 "HgN/A
10:30 AM73 °FPassing clouds.6 mph61%29.92 "HgN/A
10:00 AM73 °FSunny.6 mph65%29.92 "Hg10 mi
9:30 AM72 °FPassing clouds.6 mph69%29.92 "HgN/A
9:00 AM72 °FPassing clouds.3 mph69%29.95 "HgN/A
8:30 AM70 °FSunny.8 mph73%29.95 "Hg10 mi
8:00 AM68 °FSunny.6 mph78%29.95 "Hg10 mi
7:30 AM66 °FClear.6 mph83%29.95 "Hg5 mi
7:00 AM64 °FClear.6 mph88%29.95 "Hg4 mi
6:30 AM64 °FFog.3 mph83%29.95 "Hg3 mi
6:00 AM61 °FFog.3 mph88%29.95 "Hg3 mi
5:30 AM57 °FFog.1 mph94%29.95 "Hg3 mi
5:00 AM55 °FFog.No wind94%29.95 "Hg4 mi
4:30 AM55 °FFog.3 mph94%29.95 "Hg4 mi
4:00 AM55 °FFog.3 mph88%29.95 "Hg4 mi
3:30 AM57 °FFog.1 mph88%29.95 "Hg5 mi
3:00 AM57 °FFog.No wind94%29.95 "Hg5 mi
2:30 AM55 °FFog.1 mph94%29.95 "Hg5 mi
2:00 AM55 °FFog.1 mph94%29.95 "Hg5 mi
1:30 AM55 °FFog.No wind94%29.95 "Hg5 mi
1:00 AM55 °FClear.No wind94%29.95 "Hg5 mi
12:30 AM55 °FClear.No wind94%29.95 "Hg5 mi
12:00 AM57 °FClear.1 mph88%29.95 "Hg5 mi
11:30 PM
Fri, May 27
59 °FClear.No wind82%29.95 "Hg5 mi
11:00 PM57 °FClear.No wind88%29.95 "Hg5 mi
Weather by CustomWeather, © 2016

See weather overviewHow to use our weather pages